SCP
0 0 0 0 0 0 0 0 0 0 0 0 0 0 0 0 0 0 0 0 0 0 0 0 0 0 0 0 0 0 0 0 0 0 0 0 0 0 0 0 0 0 0
0 0 0 0 0 0 0 0 0 0 0 0 0 0 0 0 0 0 0 0 0 0 0 0 0 0 0 0 0 0 0 0 0 0 0 0 0 0 0 0 0 0 0
0 0 0 0 0 0 0 0 0 0 0 0 0 0 0 0 0 0 0 0 0 0 0 0 0 0 0 0 0 0 0 0 0 0 0 0 0 0 0 0 0 0 0
0 0 0 0 0 0 0 0 0 0 0 0 0 0 0 0 0 0 0 0 0 0 0 0 0 0 0 0 0 0 0 0 0 0 0 0 0 0 0 0 0 0 0
0 0 0 0 0 0 0 0 0 0 0 0 0 0 0 0 0 0 0 0 0 0 0 0 0 0 0 0 0 0 0 0 0 0 0 0 0 0 0 0 0 0 0
0 0 0 0 0 0 0 0 0 0 0 0 0 0 0 0 0 0 0 0 0 0 0 0 0 0 0 0 0 0 0 0 0 0 0 0 0 0 0 0 0 0 0
0 0 0 0 0 0 0 0 0 0 0 0 0 0 0 0 0 0 0 0 0 0 0 0 0 0 0 0 0 0 0 0 0 0 0 0 0 0 0 0 0 0 0
0 0 0 0 0 0 0 0 0 0 0 0 0 0 0 0 0 0 0 0 0 0 0 0 0 0 0 0 0 0 0 0 0 0 0 0 0 0 0 0 0 0 0
0 -0 -0 -0 0 0 0 0 0 0 0 0 0 0 0 0 0 0 0 0 0 0 0 0 0 0 0 0 0 0 0 0 0 0 0 0 0 0 0 0 0 0 0
0 -0 0 0 0 0 0 0 0 0 0 0 0 0 0 0 0 0 0 0 0 0 0 0 0 0 0 0 0 0 0 0 0 0 0 0 0 0 0 0 0 0 0
0 0 0 0 0 0 0 0 0 0 0 0 0 0 0 0 0 0 0 0 0 0 0 0 0 0 0 0 0 0 0 0 0 0 0 0 0 0 0 0 0 0 0
0 0 0 0 0 0 0 0 0 0 0 0 0 0 0 0 0 0 0 0 0 0 0 0 0 0 0 0 0 0 0 0 0 0 0 0 0 0 0 0 0 0 0
0 0 0 0 0 0 0 0 0 0 0 0 0 0 0 0 0 0 0 0 0 0 0 0 0 0 0 0 0 0 0 0 0 0 0 0 0 0 0 0 0 0 0
0 0 0 0 0 0 0 0 0 0 0 0 0 0 0 0 0 0 0 0 0 0 0 0 0 0 0 0 0 0 0 0 0 0 0 0 0 0 0 0 0 0 0
0 0 0 0 0 0 0 0 0 0 0 0 0 0 0 0 0 0 0 0 0 0 0 0 0 0 0 0 0 0 0 0 0 0 0 0 0 0 0 0 0 0 0
0 0 0 0 0 0 0 0 0 0 0 0 0 0 0 0 0 0 0 0 0 0 0 0 0 0 0 0 0 0 0 0 0 0 0 0 0 0 0 0 0 0 0
0 0 0 0 0 0 0 0 0 0 0 0 0 0 0 0 0 0 0 0 0 0 0 0 0 0 0 0 0 0 0 0 0 0 0 0 0 0 0 0 0 0 0
0 0 0 0 0 0 0 0 0 0 0 0 0 0 0 0 0 0 0 0 0 0 0 0 0 0 0 0 0 0 0 0 0 0 0 0 0 0 0 0 0 0 0
0 0 0 0 0 0 0 0 0 0 0 0 0 0 0 0 0 0 0 0 0 0 0 0 0 0 0 0 0 0 0 0 0 0 0 0 0 0 0 0 0 0 0
0 0 0 0 0 0 0 0 0 0 0 0 0 0 0 0 0 0 0 0 0 0 0 0 0 0 0 0 0 0 0 0 0 0 0 0 0 0 0 0 0 0 0
0 0 0 0 0 0 0 0 0 0 0 0 0 0 0 0 0 0 0 0 0 0 0 0 0 0 0 0 0 0 0 0 0 0 0 0 0 0 0 0 0 0 0
0 0 0 0 0 0 0 0 0 0 0 0 0 0 0 0 0 0 0 0 0 0 0 0 0 0 0 0 0 0 0 0 0 0 0 0 0 0 0 0 0 0 0
0 0 0 0 0 0 0 0 0 0 0 0 0 0 0 0 0 0 0 0 0 0 0 0 0 0 0 0 0 0 0 0 0 0 0 0 0 0 0 0 0 0 0
0 -0 0 0 0 0 0 0 0 0 0 0 0 0 0 0 0 0 0 0 0 0 0 0 0 0 0 0 0 0 0 0 0 0 0 0 0 0 0 0 0 0 0
-0 0 0 0 0 0 0 0 0 0 0 0 0 0 0 0 0 0 0 0 0 0 0 0 0 0 0 0 0 0 0 0 0 0 0 0 0 0 0 0 0 0 0
0 0 0 0 0 0 0 0 0 0 0 0 0 0 0 0 0 0 0 0 0 0 0 0 0 0 0 0 0 0 0 0 0 0 0 0 0 0 0 0 0 0 0
Wind_Speed
6 5 3 3 2 1 2 3 3 4 4 3 4 4 5 4 4 5 7 8 8 9 8 6 7 7 7 7 7 5 5 4 4 3 1 0 1 2 2 3 3 3 3
6 5 3 2 2 2 2 3 4 4 4 3 3 3 4 4 5 5 6 8 9 10 9 8 8 8 6 7 8 6 4 3 5 4 3 1 1 2 3 2 3 4 3
7 6 4 3 2 2 2 2 3 4 4 3 2 2 2 2 3 4 5 7 9 9 9 10 9 8 8 8 9 9 8 5 5 4 5 4 4 2 2 3 3 3 3
7 5 4 3 3 3 2 2 2 3 3 3 3 5 4 4 4 5 5 6 8 9 9 9 10 9 8 8 9 9 7 8 6 4 3 2 3 4 2 2 2 3 3
7 6 5 4 4 3 3 2 2 3 3 3 4 5 4 3 3 4 5 6 6 7 8 8 9 9 8 9 9 8 8 7 7 5 3 2 1 2 3 3 3 2 3
7 7 7 5 5 5 4 3 2 2 2 2 3 4 5 4 4 5 5 5 4 5 7 7 8 8 8 9 9 9 9 8 7 6 5 4 4 4 3 3 3 3 3
7 8 8 7 6 6 6 4 4 3 2 2 3 4 5 5 5 5 5 4 4 4 6 6 7 7 7 8 7 8 9 9 9 8 6 5 4 3 3 3 2 2 2
7 7 7 7 6 6 6 5 5 5 4 2 2 3 3 3 4 5 5 5 4 5 6 7 7 7 8 8 8 7 8 8 9 9 7 5 5 4 4 4 4 2 2
8 8 8 8 7 7 7 6 5 5 4 3 1 0 1 2 2 3 3 3 3 4 6 7 7 7 8 8 8 7 8 8 8 8 8 6 5 5 4 4 5 5 5
8 8 8 8 7 7 6 6 5 4 4 3 2 1 1 1 1 1 2 3 4 4 5 6 7 7 8 8 8 7 7 8 8 6 8 8 5 5 5 5 4 4 5
8 8 7 7 7 7 7 6 5 5 5 5 4 3 2 1 1 1 2 3 3 4 5 6 6 7 7 8 9 8 8 9 8 7 9 9 7 6 6 5 5 4 4
6 7 7 7 7 7 7 7 7 6 5 5 4 4 3 2 2 1 2 2 3 3 4 5 6 6 6 7 9 9 9 9 10 9 9 9 7 8 6 6 7 6 4
7 7 7 7 8 8 8 8 8 7 6 5 5 5 4 3 2 2 2 2 2 3 2 3 4 5 6 6 8 8 9 9 9 9 10 9 8 9 6 7 7 5 4
6 7 7 7 7 8 8 8 8 7 7 6 6 6 5 3 3 3 2 2 2 2 2 2 2 3 4 5 6 7 7 8 8 8 8 9 10 10 8 7 8 6 5
6 7 7 7 7 8 8 8 8 8 7 7 6 6 5 5 4 4 3 2 2 2 2 2 2 3 4 4 5 5 6 7 7 7 7 8 9 10 9 7 7 7 6
5 6 6 7 7 8 8 8 8 7 7 6 6 6 6 5 5 5 4 3 3 3 3 2 2 3 3 4 6 5 6 6 6 7 6 6 7 9 10 10 10 11 10
4 5 5 5 6 6 6 7 7 7 7 6 6 6 6 6 5 5 5 5 4 4 4 3 3 4 4 5 5 5 4 5 6 6 5 4 5 7 6 7 8 10 12
3 4 4 5 5 5 6 6 6 6 6 7 7 6 6 6 5 5 5 5 4 4 3 3 4 4 5 5 4 4 4 3 4 5 5 6 6 6 6 6 5 4 5
2 2 3 4 4 5 5 5 6 7 7 7 7 6 5 5 6 6 5 5 4 4 4 4 4 4 5 5 3 3 3 2 3 3 4 5 5 7 7 6 5 3 1
2 2 3 3 4 5 5 5 6 7 8 8 8 7 5 5 5 5 5 4 4 4 4 4 4 4 4 6 5 3 1 1 2 2 2 4 5 6 8 6 7 6 4
1 2 2 3 4 4 5 5 6 6 7 7 7 7 6 5 5 4 4 4 4 4 4 4 4 4 4 5 5 4 1 1 1 1 1 2 4 6 7 6 5 7 6
1 1 2 3 4 4 4 5 5 6 7 7 7 7 7 6 5 5 5 4 4 3 4 4 4 3 3 5 5 5 4 3 1 2 1 2 4 5 5 5 5 8 8
1 1 1 3 4 4 4 4 6 6 6 6 6 6 6 6 5 4 5 4 4 3 3 3 4 4 3 3 6 5 4 4 2 1 2 1 3 3 4 5 7 7 5
1 1 1 2 3 4 4 4 5 6 6 6 6 6 6 6 6 4 4 4 4 3 3 3 4 4 3 3 3 3 2 2 1 1 0 1 2 2 3 5 5 3 4
1 1 1 1 3 4 4 5 5 5 5 5 5 5 5 5 5 4 4 4 3 4 4 3 3 3 4 4 6 4 2 1 0 1 1 1 1 1 1 2 2 3 3
1 1 1 2 2 3 4 4 4 4 4 4 5 4 4 4 4 4 5 6 6 8 7 6 5 4 5 7 7 5 4 2 1 2 2 1 1 2 2 2 2 2 3
Wind_Direction
300 302 276 264 261 240 229 223 235 236 222 203 184 186 195 190 195 196 190 190 187 184 183 180 179 182 186 186 180 174 170 169 148 127 127 344 221 213 216 206 201 206 203
321 312 305 306 271 250 242 239 243 243 231 212 191 185 182 186 194 196 188 192 190 188 189 184 184 186 186 184 184 172 170 173 169 149 143 180 244 238 219 206 207 208 196
325 318 315 301 298 289 257 240 246 249 238 215 188 173 165 159 188 197 194 195 193 191 190 191 188 187 187 192 191 186 179 181 191 179 164 171 204 208 224 218 215 205 203
336 337 337 336 332 311 295 262 257 258 247 216 196 190 190 192 207 198 197 196 196 196 194 194 194 192 192 194 195 194 192 180 187 198 203 187 162 168 195 224 217 213 216
343 353 356 353 348 340 337 316 289 273 247 213 205 197 197 200 201 192 197 198 198 198 198 197 199 197 197 198 195 192 196 194 191 187 179 180 184 176 175 214 208 213 219
350 0 0 5 2 1 356 340 325 301 275 222 214 207 201 197 191 189 199 199 196 197 202 201 202 203 202 201 198 196 198 203 199 194 188 183 184 190 187 203 215 221 219
1 4 2 1 2 2 359 357 353 330 312 261 234 223 209 201 198 197 201 202 201 206 206 207 207 208 208 205 201 199 199 202 202 202 204 201 200 183 183 185 202 224 226
4 1 359 359 358 0 360 0 354 344 335 302 257 220 206 206 204 204 203 209 210 210 208 209 209 210 209 208 203 205 204 202 207 210 206 207 204 192 190 183 174 205 230
358 359 359 360 360 1 358 354 352 345 348 351 349 329 224 216 218 217 211 212 216 214 212 211 211 211 208 207 204 210 207 204 208 211 211 214 207 200 199 189 184 185 216
356 360 359 358 358 354 349 351 358 356 357 3 359 3 356 308 249 235 235 224 223 217 213 217 213 211 208 205 206 211 208 206 210 210 213 218 214 204 201 198 201 200 205
357 358 354 352 353 356 356 356 1 7 4 4 4 3 353 335 320 272 250 239 227 219 216 217 217 215 213 207 206 209 208 210 213 213 216 220 213 209 206 201 198 202 196
353 353 351 353 357 357 359 4 4 4 360 356 3 357 350 354 342 310 289 269 246 231 223 217 216 218 219 215 210 211 211 212 213 215 219 222 214 214 208 202 204 204 195
356 355 355 0 358 358 360 1 3 360 358 2 5 359 3 9 347 327 313 298 278 267 248 230 221 219 220 221 218 214 214 214 215 215 216 216 209 216 215 210 206 201 194
354 354 355 358 357 356 357 357 360 0 1 6 6 2 354 350 342 335 336 327 302 288 289 272 266 238 229 230 225 217 216 215 216 215 214 213 210 210 208 212 207 196 190
352 351 353 354 355 356 355 357 359 0 3 6 4 355 351 353 354 354 352 348 338 322 299 289 288 265 232 232 235 223 219 215 213 214 215 215 213 211 207 209 203 193 194
337 341 347 351 351 350 349 350 354 354 358 2 356 352 357 358 359 354 351 354 350 342 332 315 292 287 275 259 245 233 219 216 215 217 219 216 210 211 209 209 205 198 193
325 334 338 339 338 338 339 343 343 348 357 357 353 354 355 355 351 352 359 359 353 352 347 342 333 311 302 294 266 243 225 218 217 217 215 218 218 205 204 204 202 206 205
319 327 331 333 334 335 339 341 346 353 355 355 350 351 351 349 346 356 358 352 348 347 342 335 332 321 315 316 299 256 221 220 223 220 215 214 213 208 197 187 190 203 204
300 311 320 328 338 341 340 351 355 355 358 355 349 344 344 345 349 353 347 341 342 342 336 333 337 333 328 324 317 275 214 210 226 227 219 211 212 206 185 172 177 179 186
328 328 335 350 352 341 350 5 358 358 354 347 343 341 342 344 345 339 333 333 336 333 332 335 334 335 326 333 344 339 230 213 229 228 219 213 210 200 186 178 175 180 176
322 339 349 350 340 341 357 3 357 351 338 338 343 346 345 342 339 337 333 331 332 335 339 334 332 332 333 337 347 346 329 243 234 248 240 222 204 196 193 190 190 183 162
324 346 353 341 342 350 360 355 344 334 337 342 346 346 344 343 346 346 342 338 337 340 336 333 328 332 340 344 340 345 351 354 279 259 260 220 200 197 194 190 178 163 150
282 325 339 336 344 350 354 345 331 336 341 345 344 343 344 345 347 349 345 344 344 340 330 327 328 332 336 339 345 343 343 344 345 315 285 242 189 179 176 173 166 157 153
272 309 341 336 336 341 343 335 332 340 343 341 340 344 346 347 348 348 345 343 340 335 329 326 324 322 326 333 334 329 330 344 356 8 50 173 157 135 151 157 157 156 164
263 271 293 313 325 335 335 335 337 343 343 339 339 341 343 341 339 340 335 329 319 324 320 313 310 313 314 319 323 322 307 296 233 89 101 106 121 138 135 128 131 140 150
233 256 288 300 306 317 320 325 331 337 338 337 340 339 337 334 334 332 333 340 340 341 342 338 331 312 307 319 326 323 321 324 128 113 133 153 170 174 169 163 156 156 158